• In India
  • List of Countries
  • For 7 days
  • Water Temperature
  • Satellite Maps
  • Weather Map
  • Weather Widgets
  • user-avatar
    Login

    Hourly Weather Popeli

    Today, 16 August, Thursday

    Time Temperature Precipitation Wind Pressure Humidity
    00:00 +18°C° 0 mm 1 mps 729 mmHg 91%
    01:00 +18°C° 0 mm 1 mps 729 mmHg 90%
    02:00 +18°C° 0 mm 1 mps 729 mmHg 91%
    03:00 +18°C° 0 mm 1 mps 729 mmHg 91%
    04:00 +18°C° 0 mm 1 mps 729 mmHg 92%
    05:00 +18°C° 0 mm 1 mps 729 mmHg 92%
    06:00 +18°C° 0 mm 1 mps 729 mmHg 91%
    07:00 +19°C° 0 mm 1 mps 729 mmHg 91%
    08:00 +19°C° 0 mm 1 mps 730 mmHg 90%
    09:00 +20°C° 0.1 mm 1 mps 730 mmHg 86%
    10:00 +21°C° 0.1 mm 1 mps 730 mmHg 82%
    11:00 +21°C° 0.1 mm 1 mps 730 mmHg 79%
    12:00 +22°C° 0.2 mm 1 mps 730 mmHg 75%
    13:00 +23°C° 0.2 mm 2 mps 729 mmHg 72%
    14:00 +24°C° 0.2 mm 2 mps 729 mmHg 68%
    15:00 +24°C° 0.5 mm 2 mps 729 mmHg 72%
    16:00 +24°C° 0.5 mm 2 mps 729 mmHg 75%
    17:00 +24°C° 0.5 mm 2 mps 729 mmHg 78%
    18:00 +21°C° 0.5 mm 2 mps 729 mmHg 83%
    19:00 +20°C° 0.5 mm 2 mps 728 mmHg 88%
    20:00 +19°C° 0.5 mm 2 mps 728 mmHg 92%
    21:00 +19°C° 0 mm 1 mps 728 mmHg 93%
    22:00 +18°C° 0 mm 1 mps 728 mmHg 94%
    23:00 +18°C° 0 mm 1 mps 728 mmHg 95%

    Tomorrow, 17 August, Friday

    Time Temperature Precipitation Wind Pressure Humidity
    00:00 +18°C° 0 mm 1 mps 728 mmHg 95%
    01:00 +16°C° 0 mm 1 mps 728 mmHg 96%
    02:00 +16°C° 0 mm 1 mps 728 mmHg 96%
    03:00 +16°C° 0 mm 1 mps 728 mmHg 96%
    04:00 +16°C° 0 mm 1 mps 728 mmHg 96%
    05:00 +16°C° 0 mm 1 mps 728 mmHg 96%
    06:00 +18°C° 0 mm 1 mps 728 mmHg 94%
    07:00 +19°C° 0 mm 1 mps 728 mmHg 92%
    08:00 +20°C° 0 mm 1 mps 728 mmHg 89%
    09:00 +21°C° 0.4 mm 2 mps 728 mmHg 84%
    10:00 +23°C° 0.4 mm 2 mps 728 mmHg 79%
    11:00 +25°C° 0.4 mm 2 mps 728 mmHg 74%
    12:00 +25°C° 1.1 mm 2 mps 728 mmHg 74%
    13:00 +25°C° 1.1 mm 2 mps 728 mmHg 73%
    14:00 +26°C° 1.1 mm 2 mps 728 mmHg 72%
    15:00 +26°C° 0.5 mm 2 mps 728 mmHg 72%
    16:00 +26°C° 0.5 mm 2 mps 727 mmHg 73%
    17:00 +25°C° 0.5 mm 2 mps 727 mmHg 73%
    18:00 +24°C° 0.3 mm 2 mps 727 mmHg 79%
    19:00 +22°C° 0.3 mm 1 mps 727 mmHg 84%
    20:00 +21°C° 0.3 mm 1 mps 727 mmHg 90%
    21:00 +20°C° 0.2 mm 1 mps 727 mmHg 91%
    22:00 +20°C° 0.2 mm 1 mps 727 mmHg 92%
    23:00 +19°C° 0.2 mm 1 mps 727 mmHg 92%

    Day after tomorrow, 18 August, Saturday

    Time Temperature Precipitation Wind Pressure Humidity
    00:00 +19°C° 0 mm 1 mps 727 mmHg 93%
    01:00 +18°C° 0 mm 1 mps 727 mmHg 93%
    02:00 +18°C° 0 mm 1 mps 727 mmHg 93%
    03:00 +18°C° 0 mm 1 mps 727 mmHg 93%
    04:00 +18°C° 0 mm 1 mps 728 mmHg 93%
    05:00 +18°C° 0 mm 1 mps 728 mmHg 93%
    06:00 +19°C° 0 mm 1 mps 728 mmHg 90%
    07:00 +18°C° 0 mm 0 mps 728 mmHg 87%
    08:00 +20°C° 0 mm 0 mps 728 mmHg 84%
    09:00 +23°C° 0.3 mm 1 mps 729 mmHg 79%
    10:00 +25°C° 0.3 mm 1 mps 729 mmHg 75%
    11:00 +26°C° 0.3 mm 1 mps 729 mmHg 70%
    12:00 +26°C° 1 mm 1 mps 729 mmHg 69%
    13:00 +27°C° 1 mm 1 mps 729 mmHg 68%
    14:00 +27°C° 1 mm 1 mps 729 mmHg 67%
    15:00 +27°C° 0.8 mm 1 mps 729 mmHg 67%
    16:00 +27°C° 0.8 mm 1 mps 729 mmHg 68%
    17:00 +27°C° 0.8 mm 1 mps 729 mmHg 68%
    18:00 +25°C° 0.2 mm 1 mps 729 mmHg 74%
    19:00 +23°C° 0.2 mm 1 mps 729 mmHg 80%
    20:00 +21°C° 0.2 mm 1 mps 729 mmHg 86%
    21:00 +21°C° 0.1 mm 1 mps 729 mmHg 88%
    22:00 +20°C° 0.1 mm 1 mps 729 mmHg 89%
    23:00 +20°C° 0.1 mm 1 mps 729 mmHg 91%

    19 August, Sunday

    Time Temperature Precipitation Wind Pressure Humidity
    00:00 +19°C° 0 mm 1 mps 729 mmHg 92%
    01:00 +19°C° 0 mm 1 mps 729 mmHg 92%
    02:00 +19°C° 0 mm 1 mps 729 mmHg 93%
    03:00 +19°C° 0 mm 1 mps 729 mmHg 93%
    04:00 +18°C° 0 mm 1 mps 729 mmHg 94%
    05:00 +18°C° 0 mm 1 mps 729 mmHg 94%
    06:00 +19°C° 0 mm 1 mps 730 mmHg 92%
    07:00 +20°C° 0 mm 1 mps 730 mmHg 89%
    08:00 +22°C° 0 mm 1 mps 730 mmHg 87%
    09:00 +23°C° 0.2 mm 2 mps 730 mmHg 80%
    10:00 +24°C° 0.2 mm 2 mps 730 mmHg 73%
    11:00 +26°C° 0.2 mm 2 mps 731 mmHg 67%
    12:00 +26°C° 0.1 mm 3 mps 730 mmHg 64%
    13:00 +27°C° 0.1 mm 3 mps 730 mmHg 61%
    14:00 +28°C° 0.1 mm 3 mps 730 mmHg 58%
    15:00 +27°C° 0.1 mm 3 mps 730 mmHg 61%
    16:00 +27°C° 0.1 mm 3 mps 730 mmHg 64%
    17:00 +26°C° 0.1 mm 3 mps 730 mmHg 67%
    18:00 +25°C° 0 mm 2 mps 730 mmHg 73%
    19:00 +23°C° 0 mm 1 mps 730 mmHg 79%
    20:00 +21°C° 0 mm 1 mps 730 mmHg 86%
    21:00 +20°C° 0 mm 1 mps 730 mmHg 87%
    22:00 +20°C° 0 mm 1 mps 730 mmHg 89%
    23:00 +19°C° 0 mm 1 mps 730 mmHg 90%

    20 August, Monday

    Time Temperature Precipitation Wind Pressure Humidity
    00:00 +19°C° 0 mm 1 mps 730 mmHg 92%
    01:00 +18°C° 0 mm 1 mps 730 mmHg 93%
    02:00 +18°C° 0 mm 1 mps 730 mmHg 94%
    03:00 +18°C° 0 mm 1 mps 730 mmHg 94%
    04:00 +18°C° 0 mm 1 mps 730 mmHg 95%
    05:00 +16°C° 0 mm 1 mps 730 mmHg 95%
    06:00 +19°C° 0 mm 1 mps 730 mmHg 92%
    07:00 +20°C° 0 mm 1 mps 731 mmHg 89%
    08:00 +21°C° 0 mm 1 mps 731 mmHg 86%
    09:00 +21°C° 0 mm 2 mps 731 mmHg 80%
    10:00 +23°C° 0 mm 2 mps 731 mmHg 75%
    11:00 +25°C° 0 mm 2 mps 731 mmHg 69%
    12:00 +25°C° 0 mm 2 mps 731 mmHg 67%
    13:00 +26°C° 0 mm 2 mps 730 mmHg 64%
    14:00 +26°C° 0 mm 2 mps 730 mmHg 62%
    15:00 +26°C° 0.1 mm 2 mps 730 mmHg 65%
    16:00 +26°C° 0.1 mm 2 mps 730 mmHg 67%
    17:00 +25°C° 0.1 mm 2 mps 730 mmHg 69%
    18:00 +24°C° 0 mm 2 mps 730 mmHg 74%
    19:00 +21°C° 0 mm 2 mps 730 mmHg 80%
    20:00 +20°C° 0 mm 1 mps 730 mmHg 85%
    21:00 +20°C° 0 mm 1 mps 730 mmHg 86%
    22:00 +19°C° 0 mm 1 mps 730 mmHg 87%
    23:00 +18°C° 0 mm 1 mps 730 mmHg 88%

    21 August, Tuesday

    Time Temperature Precipitation Wind Pressure Humidity
    00:00 +18°C° 0 mm 1 mps 730 mmHg 89%
    01:00 +18°C° 0 mm 1 mps 730 mmHg 90%
    02:00 +16°C° 0 mm 0 mps 729 mmHg 90%
    03:00 +15°C° 0 mm 0 mps 729 mmHg 91%
    04:00 +15°C° 0 mm 0 mps 729 mmHg 91%
    05:00 +15°C° 0 mm 0 mps 729 mmHg 92%
    06:00 +16°C° 0 mm 0 mps 730 mmHg 88%
    07:00 +18°C° 0 mm 0 mps 730 mmHg 84%
    08:00 +19°C° 0 mm 0 mps 730 mmHg 81%
    09:00 +23°C° 0 mm 1 mps 730 mmHg 75%
    10:00 +25°C° 0 mm 1 mps 730 mmHg 69%
    11:00 +27°C° 0 mm 1 mps 730 mmHg 64%
    12:00 +27°C° 0 mm 1 mps 730 mmHg 63%
    13:00 +28°C° 0 mm 1 mps 730 mmHg 61%
    14:00 +28°C° 0 mm 1 mps 729 mmHg 60%
    15:00 +28°C° 0.2 mm 1 mps 729 mmHg 63%
    16:00 +28°C° 0.2 mm 1 mps 729 mmHg 65%
    17:00 +27°C° 0.2 mm 1 mps 729 mmHg 68%
    18:00 +25°C° 0.1 mm 1 mps 729 mmHg 74%
    19:00 +24°C° 0.1 mm 1 mps 729 mmHg 80%
    20:00 +20°C° 0.1 mm 0 mps 729 mmHg 86%
    21:00 +19°C° 0 mm 0 mps 729 mmHg 87%
    22:00 +19°C° 0 mm 0 mps 729 mmHg 88%
    23:00 +18°C° 0 mm 0 mps 729 mmHg 90%
    Show more